Location: Baili�vre
(50.0696°N, 4.2409°E)
Time: 06:33:41
(UTC+00:00)

Meteor 2-4 Rocket - Pass Details

Date: 08 August 2020
Orbit: 798 x 909 km, 81.2° (Epoch: 23 September)

Event Time Altitude Azimuth Distance (km) Brightness Sun altitude
Rises 21:07:51 0° 351° (N) 3,487 8.0 -15.2°
Reaches altitude 10° 21:10:29 10° 359° (N) 2,527 7.0 -15.5°
Maximum altitude 21:15:53 41° 69° (ENE) 1,213 4.4 -16.1°
Enters shadow 21:18:42 24° 124° (SE) 1,661 4.7 -16.3°
